Time,TemperatureF,DewpointF,PressureIn,WindDirection,WindDirectionDegrees,WindSpeedMPH,WindSpeedGustMPH,Humidity,HourlyPrecipIn,Conditions,Clouds,dailyrainin,SoftwareType,DateUTC
2013-08-13 00:12:00,57.0,51.0,29.93,WNW,290,10.0,18.0,79,0.00,,,0.01,,2013-08-13 04:12:00,
2013-08-13 00:23:00,57.0,51.0,29.93,NNW,338,9.0,16.0,80,0.00,,,0.01,,2013-08-13 04:23:00,
2013-08-13 00:53:00,57.0,51.0,29.94,NNW,338,11.0,15.0,79,0.00,,,0.01,,2013-08-13 04:53:00,
2013-08-13 01:21:00,57.0,50.0,29.94,NNW,340,9.0,16.0,78,0.00,,,0.01,,2013-08-13 05:21:00,
2013-08-13 01:52:00,56.0,49.0,29.94,North,355,10.0,16.0,76,0.00,,,0.01,,2013-08-13 05:52:00,
2013-08-13 02:21:00,56.0,48.0,29.95,North,5,11.0,18.0,74,0.00,,,0.01,,2013-08-13 06:21:00,
2013-08-13 02:52:00,56.0,48.0,29.94,NNW,339,9.0,14.0,75,0.00,,,0.01,,2013-08-13 06:52:00,
2013-08-13 03:21:00,55.0,48.0,29.94,NNW,334,8.0,15.0,77,0.00,,,0.01,,2013-08-13 07:21:00,
2013-08-13 03:52:00,55.0,49.0,29.94,NNW,328,10.0,15.0,80,0.00,,,0.01,,2013-08-13 07:52:00,
2013-08-13 04:22:00,54.0,48.0,29.94,North,350,7.0,14.0,80,0.00,,,0.01,,2013-08-13 08:22:00,
2013-08-13 04:52:00,54.0,48.0,29.95,NNE,20,11.0,15.0,81,0.00,,,0.01,,2013-08-13 08:52:00,
2013-08-13 05:22:00,53.0,47.0,29.96,North,349,8.0,15.0,81,0.00,,,0.01,,2013-08-13 09:22:00,
2013-08-13 05:54:00,53.0,47.0,29.96,NNW,345,13.0,16.0,80,0.00,,,0.01,,2013-08-13 09:54:00,
2013-08-13 06:23:00,53.0,48.0,29.97,NW,326,8.0,13.0,82,0.00,,,0.01,,2013-08-13 10:23:00,
2013-08-13 06:53:00,53.0,47.0,29.98,NW,319,11.0,18.0,80,0.00,,,0.01,,2013-08-13 10:53:00,
2013-08-13 07:22:00,53.0,47.0,29.98,NNW,344,8.0,18.0,81,0.00,,,0.01,,2013-08-13 11:22:00,
2013-08-13 07:52:00,54.0,48.0,29.98,NW,319,5.0,15.0,79,0.00,,,0.01,,2013-08-13 11:52:00,
2013-08-13 08:21:00,55.0,48.0,29.98,NNW,339,10.0,16.0,77,0.00,,,0.01,,2013-08-13 12:21:00,
2013-08-13 08:52:00,56.0,48.0,29.98,NW,307,8.0,18.0,74,0.00,,,0.01,,2013-08-13 12:52:00,
2013-08-13 09:22:00,57.0,48.0,29.99,NNW,346,12.0,19.0,71,0.00,,,0.01,,2013-08-13 13:22:00,
2013-08-13 09:52:00,57.0,47.0,29.99,NNW,331,12.0,19.0,70,0.00,,,0.01,,2013-08-13 13:52:00,
2013-08-13 10:22:00,57.0,46.0,30.00,NNW,345,10.0,16.0,67,0.00,,,0.01,,2013-08-13 14:22:00,
2013-08-13 10:52:00,59.0,46.0,30.01,North,360,12.0,18.0,63,0.00,,,0.01,,2013-08-13 14:52:00,
2013-08-13 11:22:00,58.0,47.0,30.01,NW,315,5.0,15.0,68,0.00,,,0.01,,2013-08-13 15:22:00,
2013-08-13 11:54:00,59.0,48.0,30.01,NNW,329,8.0,14.0,66,0.00,,,0.01,,2013-08-13 15:54:00,
2013-08-13 12:23:00,59.0,47.0,30.02,NW,304,8.0,18.0,64,0.00,,,0.01,,2013-08-13 16:23:00,
2013-08-13 12:54:00,59.0,47.0,30.02,NNW,347,9.0,16.0,64,0.00,,,0.01,,2013-08-13 16:54:00,
2013-08-13 13:27:00,57.0,47.0,30.02,NNW,335,14.0,20.0,69,0.00,,,0.01,,2013-08-13 17:27:00,
2013-08-13 13:46:00,-999.0,-99.9,30.02,NW,309,1.0,10.0,-999,0.00,,,0.01,,2013-08-13 17:46:00,
2013-08-13 13:56:00,58.0,49.0,30.02,NW,309,1.0,10.0,72,0.00,,,0.01,,2013-08-13 17:56:00,
2013-08-13 14:25:00,61.0,48.0,30.02,WNW,287,10.0,20.0,63,0.00,,,0.01,,2013-08-13 18:25:00,
2013-08-13 14:56:00,61.0,47.0,30.02,NW,321,13.0,24.0,61,0.00,,,0.01,,2013-08-13 18:56:00,
2013-08-13 15:25:00,60.0,47.0,30.02,NNW,331,14.0,20.0,62,0.00,,,0.01,,2013-08-13 19:25:00,
2013-08-13 15:55:00,60.0,45.0,30.02,WNW,302,16.0,25.0,57,0.00,,,0.01,,2013-08-13 19:55:00,
2013-08-13 16:22:00,59.0,46.0,30.03,NNW,331,15.0,23.0,62,0.00,,,0.01,,2013-08-13 20:22:00,
2013-08-13 16:53:00,59.0,46.0,30.03,NW,307,15.0,25.0,61,0.00,,,0.01,,2013-08-13 20:53:00,
2013-08-13 17:24:00,59.0,46.0,30.04,WNW,297,15.0,21.0,62,0.00,,,0.01,,2013-08-13 21:24:00,
2013-08-13 17:54:00,59.0,47.0,30.04,NW,311,14.0,23.0,65,0.00,,,0.01,,2013-08-13 21:54:00,
2013-08-13 18:22:00,58.0,49.0,30.04,North,349,14.0,21.0,72,0.00,,,0.01,,2013-08-13 22:22:00,
2013-08-13 18:57:00,57.0,49.0,30.05,NNW,340,2.0,15.0,75,0.00,,,0.01,,2013-08-13 22:57:00,
2013-08-13 19:26:00,58.0,49.0,30.05,NW,308,7.0,16.0,71,0.00,,,0.00,,2013-08-13 23:26:00,
2013-08-13 19:57:00,58.0,49.0,30.05,NNW,342,7.0,18.0,72,0.00,,,0.00,,2013-08-13 23:57:00,
2013-08-13 20:22:00,57.0,50.0,30.06,North,5,10.0,16.0,77,0.00,,,0.00,,2013-08-14 00:22:00,
2013-08-13 20:52:00,57.0,50.0,30.06,NNW,331,0.0,7.0,76,0.00,,,0.00,,2013-08-14 00:52:00,
2013-08-13 21:21:00,57.0,49.0,30.06,WNW,284,6.0,13.0,75,0.00,,,0.00,,2013-08-14 01:21:00,
2013-08-13 21:52:00,57.0,49.0,30.07,NNW,338,1.0,9.0,75,0.00,,,0.00,,2013-08-14 01:52:00,
2013-08-13 22:22:00,56.0,49.0,30.07,NNW,330,3.0,13.0,77,0.00,,,0.00,,2013-08-14 02:22:00,
2013-08-13 22:52:00,56.0,49.0,30.08,NNW,346,4.0,12.0,77,0.00,,,0.00,,2013-08-14 02:52:00,
2013-08-13 23:22:00,57.0,50.0,30.08,NNW,331,0.0,11.0,77,0.00,,,0.00,,2013-08-14 03:22:00,
2013-08-13 23:53:00,56.0,50.0,30.09,NW,326,1.0,12.0,80,0.00,,,0.00,,2013-08-14 03:53:00,